TimeMDT,TemperatureF,Dew PointF,Humidity,Sea Level PressureIn,VisibilityMPH,Wind Direction,Wind SpeedMPH,Gust SpeedMPH,PrecipitationIn,Events,Conditions,WindDirDegrees,DateUTC
12:53 AM,34.0,25.0,70,29.98,10.0,SSW,8.1,-,N/A,,Clear,200,2012-10-24 06:53:00
1:53 AM,30.0,25.0,82,30.00,10.0,SSW,6.9,-,N/A,,Partly Cloudy,210,2012-10-24 07:53:00
2:53 AM,30.0,25.0,82,30.01,10.0,South,4.6,-,N/A,,Clear,180,2012-10-24 08:53:00
3:53 AM,28.9,25.0,85,30.02,10.0,SW,5.8,-,N/A,,Clear,220,2012-10-24 09:53:00
4:53 AM,30.0,25.0,82,30.02,10.0,South,6.9,-,N/A,,Clear,180,2012-10-24 10:53:00
5:53 AM,26.1,21.9,84,30.04,10.0,SSW,5.8,-,N/A,,Clear,210,2012-10-24 11:53:00
6:53 AM,24.1,19.9,84,30.07,10.0,West,6.9,-,N/A,,Clear,270,2012-10-24 12:53:00
7:53 AM,24.1,19.0,81,30.08,10.0,Calm,Calm,-,N/A,Fog,Scattered Clouds,0,2012-10-24 13:53:00
8:53 AM,26.1,21.0,81,30.09,10.0,West,3.5,-,N/A,,Scattered Clouds,260,2012-10-24 14:53:00
9:53 AM,28.0,21.9,78,30.10,10.0,NNW,4.6,-,N/A,,Clear,330,2012-10-24 15:53:00
10:53 AM,30.9,25.0,79,30.09,10.0,Calm,Calm,-,N/A,,Clear,0,2012-10-24 16:53:00
11:53 AM,35.1,27.0,72,30.07,10.0,Calm,Calm,-,N/A,,Scattered Clouds,0,2012-10-24 17:53:00
12:53 PM,37.9,23.0,55,30.04,10.0,SSW,4.6,-,N/A,,Scattered Clouds,200,2012-10-24 18:53:00
1:53 PM,39.9,21.9,49,30.04,10.0,Variable,4.6,-,N/A,,Scattered Clouds,0,2012-10-24 19:53:00
2:53 PM,41.0,19.9,43,30.04,10.0,SSW,8.1,-,N/A,,Scattered Clouds,210,2012-10-24 20:53:00
3:53 PM,42.1,21.0,43,30.04,10.0,SW,11.5,-,N/A,,Mostly Cloudy,220,2012-10-24 21:53:00
4:53 PM,41.0,19.0,41,30.06,10.0,SW,9.2,-,N/A,,Mostly Cloudy,230,2012-10-24 22:53:00
5:53 PM,39.0,21.0,49,30.09,10.0,SW,4.6,-,N/A,,Overcast,230,2012-10-24 23:53:00
7:53 PM,34.0,23.0,64,30.14,10.0,SE,3.5,-,N/A,,Clear,140,2012-10-25 01:53:00
8:53 PM,35.1,24.1,64,30.12,10.0,Calm,Calm,-,N/A,,Clear,0,2012-10-25 02:53:00
9:53 PM,30.9,24.1,76,30.13,10.0,Calm,Calm,-,N/A,,Clear,0,2012-10-25 03:53:00
10:53 PM,30.0,25.0,82,30.13,10.0,Calm,Calm,-,N/A,,Overcast,0,2012-10-25 04:53:00
11:53 PM,33.1,24.1,70,30.13,10.0,SSW,5.8,-,N/A,,Overcast,210,2012-10-25 05:53:00